,,,PA_Meas_PMT16A,,PR_Meas_QMR101_102,,RH_Meas_QMH101,,SR_Meas_QMS101,,TA_Meas_QMH101,,GenWind,,GenWind,
date,time,status,PA,status,PR,status,RH,status,SR,status,TA,status,DirAvg,status,SpdAvg,
2013-01-24, 00:00:04,VALID,1011.58,VALID,0,VALID,104,VALID,0.112112,VALID,23.733,VALID,216,VALID,0,
2013-01-24, 00:01:04,VALID,1011.54,VALID,0,VALID,104,VALID,0,VALID,23.7117,VALID,216,VALID,0,
2013-01-24, 00:02:04,VALID,1011.56,VALID,0,VALID,104,VALID,0,VALID,23.7135,VALID,216,VALID,0,
2013-01-24, 00:03:04,VALID,1011.55,VALID,0,VALID,104,VALID,0,VALID,23.6745,VALID,216,VALID,0,
2013-01-24, 00:04:04,VALID,1011.56,VALID,0,VALID,104,VALID,0,VALID,23.6745,VALID,216,VALID,0,
2013-01-24, 00:05:04,VALID,1011.6,VALID,0,VALID,104,VALID,0,VALID,23.6745,VALID,216,VALID,0,
2013-01-24, 00:06:04,VALID,1011.58,VALID,0,VALID,104,VALID,0,VALID,23.6745,VALID,216,VALID,0,
2013-01-24, 00:07:04,VALID,1011.56,VALID,0,VALID,104,VALID,0,VALID,23.655,VALID,216,VALID,0,
2013-01-24, 00:08:04,VALID,1011.58,VALID,0,VALID,104,VALID,0,VALID,23.655,VALID,216,VALID,0,
2013-01-24, 00:09:04,VALID,1011.56,VALID,0,VALID,104,VALID,0,VALID,23.655,VALID,216,VALID,0,
2013-01-24, 00:10:04,VALID,1011.58,VALID,0,VALID,104,VALID,0,VALID,23.6338,VALID,216,VALID,0,
2013-01-24, 00:11:04,VALID,1011.6,VALID,0,VALID,104,VALID,0,VALID,23.655,VALID,216,VALID,0,
2013-01-24, 00:12:04,VALID,1011.61,VALID,0,VALID,104,VALID,0,VALID,23.655,VALID,216,VALID,0,
2013-01-24, 00:13:04,VALID,1011.6,VALID,0,VALID,104,VALID,0,VALID,23.655,VALID,215,VALID,0,
2013-01-24, 00:14:04,VALID,1011.61,VALID,0,VALID,104,VALID,0.112112,VALID,23.6338,VALID,216,VALID,0,
2013-01-24, 00:15:04,VALID,1011.62,VALID,0,VALID,104,VALID,0,VALID,23.6338,VALID,216,VALID,0,
2013-01-24, 00:16:04,VALID,1011.63,VALID,0,VALID,104,VALID,0,VALID,23.6745,VALID,216,VALID,0,
2013-01-24, 00:17:04,VALID,1011.63,VALID,0,VALID,104,VALID,0,VALID,23.694,VALID,216,VALID,0.433203,
2013-01-24, 00:18:04,VALID,1011.61,VALID,0,VALID,104,VALID,0,VALID,23.7135,VALID,215,VALID,0.473047,
2013-01-24, 00:19:04,VALID,1011.6,VALID,0,VALID,104,VALID,0,VALID,23.6922,VALID,216,VALID,0.296094,
2013-01-24, 00:20:04,VALID,1011.6,VALID,0,VALID,104,VALID,0,VALID,23.7135,VALID,215,VALID,0.364453,
2013-01-24, 00:21:04,VALID,1011.6,VALID,0,VALID,104,VALID,0,VALID,23.7117,VALID,216,VALID,0.209375,
2013-01-24, 00:22:04,VALID,1011.61,VALID,0,VALID,104,VALID,0,VALID,23.7312,VALID,216,VALID,0.0765625,
2013-01-24, 00:23:04,VALID,1011.61,VALID,0,VALID,104,VALID,0,VALID,23.7312,VALID,216,VALID,0,
2013-01-24, 00:24:04,VALID,1011.62,VALID,0,VALID,104,VALID,0,VALID,23.733,VALID,216,VALID,0,
2013-01-24, 00:25:04,VALID,1011.59,VALID,0,VALID,104,VALID,0,VALID,23.733,VALID,216,VALID,0,
2013-01-24, 00:26:04,VALID,1011.63,VALID,0,VALID,104,VALID,0,VALID,23.7135,VALID,216,VALID,0.320703,
2013-01-24, 00:27:05,VALID,1011.63,VALID,0,VALID,104,VALID,0,VALID,23.7135,VALID,216,VALID,0.449219,
2013-01-24, 00:28:05,VALID,1011.62,VALID,0,VALID,104,VALID,0,VALID,23.6745,VALID,216,VALID,0.366406,
2013-01-24, 00:29:05,VALID,1011.65,VALID,0,VALID,104,VALID,0,VALID,23.6745,VALID,216,VALID,0.317187,
2013-01-24, 00:30:05,VALID,1011.65,VALID,0,VALID,104,VALID,0,VALID,23.6745,VALID,216,VALID,0.284375,
2013-01-24, 00:31:05,VALID,1011.63,VALID,0,VALID,104,VALID,0,VALID,23.655,VALID,216,VALID,0.222656,
2013-01-24, 00:32:05,VALID,1011.63,VALID,0,VALID,104,VALID,0,VALID,23.6338,VALID,216,VALID,0.214844,
2013-01-24, 00:33:05,VALID,1011.64,VALID,0,VALID,104,VALID,0,VALID,23.655,VALID,216,VALID,0.141016,
2013-01-24, 00:34:05,VALID,1011.61,VALID,0,VALID,104,VALID,0,VALID,23.655,VALID,216,VALID,0.260547,
2013-01-24, 00:35:05,VALID,1011.61,VALID,0,VALID,104,VALID,0,VALID,23.655,VALID,216,VALID,0.258594,
2013-01-24, 00:36:05,VALID,1011.58,VALID,0,VALID,104,VALID,0,VALID,23.6745,VALID,216,VALID,0.322656,
2013-01-24, 00:37:05,VALID,1011.56,VALID,0,VALID,104,VALID,0,VALID,23.6745,VALID,216,VALID,0.29375,
2013-01-24, 00:38:05,VALID,1011.56,VALID,0,VALID,104,VALID,0,VALID,23.6745,VALID,216,VALID,0.353125,
2013-01-24, 00:39:05,VALID,1011.55,VALID,0,VALID,104,VALID,0.112112,VALID,23.6745,VALID,216,VALID,0.310937,
2013-01-24, 00:40:05,VALID,1011.55,VALID,0,VALID,104,VALID,0,VALID,23.694,VALID,216,VALID,0.432422,
2013-01-24, 00:41:05,VALID,1011.52,VALID,0,VALID,104,VALID,0,VALID,23.694,VALID,216,VALID,0.366406,
2013-01-24, 00:42:05,VALID,1011.54,VALID,0,VALID,104,VALID,0,VALID,23.7135,VALID,214,VALID,0.386719,
2013-01-24, 00:43:05,VALID,1011.52,VALID,0,VALID,104,VALID,0,VALID,23.694,VALID,214,VALID,0.294141,
2013-01-24, 00:44:05,VALID,1011.51,VALID,0,VALID,104,VALID,0,VALID,23.7135,VALID,214,VALID,0.474609,
2013-01-24, 00:45:05,VALID,1011.55,VALID,0,VALID,104,VALID,0,VALID,23.7525,VALID,209,VALID,0.783984,
2013-01-24, 00:46:05,VALID,1011.52,VALID,0,VALID,104,VALID,0,VALID,23.7525,VALID,209,VALID,0.169531,
2013-01-24, 00:47:05,VALID,1011.51,VALID,0,VALID,104,VALID,0,VALID,23.733,VALID,209,VALID,0.28125,
2013-01-24, 00:48:05,VALID,1011.49,VALID,0,VALID,104,VALID,0,VALID,23.733,VALID,209,VALID,0.128125,
2013-01-24, 00:49:05,VALID,1011.52,VALID,0,VALID,104,VALID,0,VALID,23.7525,VALID,209,VALID,0.279687,
2013-01-24, 00:50:05,VALID,1011.49,VALID,0,VALID,104,VALID,0,VALID,23.772,VALID,209,VALID,0.391406,
2013-01-24, 00:51:05,VALID,1011.5,VALID,0,VALID,104,VALID,0,VALID,23.772,VALID,209,VALID,0.323047,
2013-01-24, 00:52:05,VALID,1011.49,VALID,0,VALID,104,VALID,0,VALID,23.7525,VALID,209,VALID,0.141797,
2013-01-24, 00:53:05,VALID,1011.5,VALID,0,VALID,104,VALID,0,VALID,23.7525,VALID,209,VALID,0.377344,
2013-01-24, 00:54:05,VALID,1011.49,VALID,0,VALID,104,VALID,0,VALID,23.7525,VALID,209,VALID,0.464844,
2013-01-24, 00:55:05,VALID,1011.48,VALID,0,VALID,104,VALID,0,VALID,23.733,VALID,208,VALID,0.451953,
2013-01-24, 00:56:05,VALID,1011.49,VALID,0,VALID,104,VALID,0,VALID,23.7525,VALID,208,VALID,0.440625,
2013-01-24, 00:57:05,VALID,1011.48,VALID,0,VALID,104,VALID,0,VALID,23.7135,VALID,208,VALID,0.311719,
2013-01-24, 00:58:05,VALID,1011.44,VALID,0,VALID,104,VALID,0,VALID,23.7135,VALID,208,VALID,0.2,
2013-01-24, 00:59:05,VALID,1011.46,VALID,0,VALID,104,VALID,0,VALID,23.733,VALID,208,VALID,0.380469,
2013-01-24, 01:00:05,VALID,1011.45,VALID,0,VALID,104,VALID,0,VALID,23.7135,VALID,208,VALID,0.232812,
2013-01-24, 01:01:05,VALID,1011.48,VALID,0,VALID,104,VALID,0,VALID,23.733,VALID,207,VALID,0.121875,
2013-01-24, 01:02:05,VALID,1011.51,VALID,0,VALID,104,VALID,0,VALID,23.733,VALID,208,VALID,0,
2013-01-24, 01:03:05,VALID,1011.48,VALID,0,VALID,104,VALID,0,VALID,23.772,VALID,208,VALID,0.140234,
2013-01-24, 01:04:05,VALID,1011.49,VALID,0,VALID,104,VALID,0,VALID,23.7525,VALID,208,VALID,0.0441406,
2013-01-24, 01:05:05,VALID,1011.48,VALID,0,VALID,104,VALID,0,VALID,23.7914,VALID,208,VALID,0.402344,
2013-01-24, 01:06:05,VALID,1011.48,VALID,0,VALID,104,VALID,0,VALID,23.772,VALID,208,VALID,0.717578,
2013-01-24, 01:07:05,VALID,1011.48,VALID,0,VALID,104,VALID,0,VALID,23.7914,VALID,210,VALID,1.25547,
2013-01-24, 01:08:05,VALID,1011.47,VALID,0,VALID,104,VALID,0,VALID,23.7914,VALID,214,VALID,1.03516,
2013-01-24, 01:09:05,VALID,1011.47,VALID,0,VALID,104,VALID,0,VALID,23.7914,VALID,214,VALID,0.696484,
2013-01-24, 01:10:05,VALID,1011.45,VALID,0,VALID,104,VALID,0,VALID,23.8322,VALID,226,VALID,0.713281,
2013-01-24, 01:11:05,VALID,1011.47,VALID,0,VALID,104,VALID,0,VALID,23.8109,VALID,233,VALID,0.883984,
2013-01-24, 01:12:05,VALID,1011.47,VALID,0,VALID,104,VALID,0,VALID,23.8109,VALID,216,VALID,0.609766,
2013-01-24, 01:13:05,VALID,1011.45,VALID,0,VALID,104,VALID,0,VALID,23.7914,VALID,226,VALID,1.14688,
2013-01-24, 01:14:05,VALID,1011.42,VALID,0,VALID,104,VALID,0,VALID,23.7932,VALID,204,VALID,0.778906,
2013-01-24, 01:15:05,VALID,1011.46,VALID,0,VALID,104,VALID,0,VALID,23.7914,VALID,205,VALID,0.627344,
2013-01-24, 01:16:05,VALID,1011.44,VALID,0,VALID,104,VALID,0,VALID,23.772,VALID,211,VALID,0.85625,
2013-01-24, 01:17:05,VALID,1011.43,VALID,0,VALID,104,VALID,0,VALID,23.7525,VALID,220,VALID,0.7625,
2013-01-24, 01:18:05,VALID,1011.43,VALID,0,VALID,104,VALID,0,VALID,23.7525,VALID,214,VALID,0.714844,
2013-01-24, 01:19:05,VALID,1011.44,VALID,0,VALID,104,VALID,0,VALID,23.7543,VALID,193,VALID,0.889063,
2013-01-24, 01:20:05,VALID,1011.42,VALID,0,VALID,104,VALID,0,VALID,23.7525,VALID,208,VALID,0.653906,
2013-01-24, 01:21:05,VALID,1011.39,VALID,0,VALID,104,VALID,0,VALID,23.7543,VALID,226,VALID,1.25234,
2013-01-24, 01:22:05,VALID,1011.4,VALID,0,VALID,104,VALID,0,VALID,23.733,VALID,210,VALID,0.785156,
2013-01-24, 01:23:05,VALID,1011.38,VALID,0,VALID,104,VALID,0,VALID,23.7738,VALID,212,VALID,0.521875,
2013-01-24, 01:24:05,VALID,1011.37,VALID,0,VALID,104,VALID,0,VALID,23.7525,VALID,195,VALID,0.698047,
2013-01-24, 01:25:05,VALID,1011.38,VALID,0,VALID,104,VALID,0,VALID,23.733,VALID,236,VALID,0.708203,
2013-01-24, 01:26:05,VALID,1011.38,VALID,0,VALID,104,VALID,0,VALID,23.733,VALID,236,VALID,0.200391,
2013-01-24, 01:27:05,VALID,1011.36,VALID,0,VALID,104,VALID,0,VALID,23.733,VALID,210,VALID,0.700391,
2013-01-24, 01:28:05,VALID,1011.37,VALID,0,VALID,104,VALID,0,VALID,23.733,VALID,210,VALID,0.677344,
2013-01-24, 01:29:05,VALID,1011.37,VALID,0,VALID,104,VALID,0,VALID,23.733,VALID,200,VALID,0.797266,
2013-01-24, 01:30:05,VALID,1011.35,VALID,0,VALID,104,VALID,0,VALID,23.7348,VALID,209,VALID,1.19023,
2013-01-24, 01:31:05,VALID,1011.32,VALID,0,VALID,104,VALID,0,VALID,23.7135,VALID,209,VALID,0.376953,
2013-01-24, 01:32:05,VALID,1011.33,VALID,0,VALID,104,VALID,0,VALID,23.7153,VALID,207,VALID,0.604297,
2013-01-24, 01:33:05,VALID,1011.3,VALID,0,VALID,104,VALID,0,VALID,23.694,VALID,189,VALID,0.660937,
2013-01-24, 01:34:05,VALID,1011.3,VALID,0,VALID,104,VALID,0,VALID,23.6958,VALID,180,VALID,0.865625,
2013-01-24, 01:35:05,VALID,1011.28,VALID,0,VALID,104,VALID,0,VALID,23.655,VALID,194,VALID,0.685156,
2013-01-24, 01:36:05,VALID,1011.25,VALID,0,VALID,104,VALID,0,VALID,23.655,VALID,181,VALID,0.882422,
2013-01-24, 01:37:05,VALID,1011.23,VALID,0,VALID,104,VALID,0,VALID,23.6356,VALID,192,VALID,0.960938,
2013-01-24, 01:38:05,VALID,1011.22,VALID,0,VALID,104,VALID,0,VALID,23.6373,VALID,187,VALID,1.11836,
2013-01-24, 01:39:05,VALID,1011.21,VALID,0,VALID,104,VALID,0,VALID,23.655,VALID,201,VALID,0.583984,
2013-01-24, 01:40:05,VALID,1011.24,VALID,0,VALID,104,VALID,0,VALID,23.6161,VALID,192,VALID,1.03281,
2013-01-24, 01:41:05,VALID,1011.21,VALID,0,VALID,104,VALID,0,VALID,23.6161,VALID,199,VALID,0.575391,
2013-01-24, 01:42:05,VALID,1011.21,VALID,0,VALID,104,VALID,0,VALID,23.5966,VALID,196,VALID,0.659375,
2013-01-24, 01:43:05,VALID,1011.2,VALID,0,VALID,104,VALID,0,VALID,23.5966,VALID,157,VALID,0.869922,
2013-01-24, 01:44:05,VALID,1011.2,VALID,0,VALID,104,VALID,0,VALID,23.5966,VALID,161,VALID,0.667578,
2013-01-24, 01:45:05,VALID,1011.24,VALID,0,VALID,104,VALID,0,VALID,23.5966,VALID,173,VALID,0.995313,
2013-01-24, 01:46:05,VALID,1011.22,VALID,0,VALID,104,VALID,0,VALID,23.5966,VALID,172,VALID,0.633203,
2013-01-24, 01:47:05,VALID,1011.23,VALID,0,VALID,104,VALID,0,VALID,23.5576,VALID,174,VALID,0.705078,
2013-01-24, 01:48:05,VALID,1011.21,VALID,0,VALID,104,VALID,0,VALID,23.5576,VALID,169,VALID,0.765234,
2013-01-24, 01:49:05,VALID,1011.21,VALID,0,VALID,104,VALID,0,VALID,23.5381,VALID,176,VALID,1.09102,
2013-01-24, 01:50:05,VALID,1011.19,VALID,0,VALID,104,VALID,0,VALID,23.5576,VALID,191,VALID,0.875,
2013-01-24, 01:51:05,VALID,1011.17,VALID,0,VALID,104,VALID,0,VALID,23.5576,VALID,174,VALID,0.794141,
2013-01-24, 01:52:05,VALID,1011.15,VALID,0,VALID,104,VALID,0,VALID,23.5381,VALID,187,VALID,1.01836,
2013-01-24, 01:53:05,VALID,1011.14,VALID,0,VALID,104,VALID,0,VALID,23.5381,VALID,169,VALID,0.901172,
2013-01-24, 01:54:05,VALID,1011.11,VALID,0,VALID,104,VALID,0,VALID,23.5594,VALID,166,VALID,0.633594,
2013-01-24, 01:55:05,VALID,1011.11,VALID,0,VALID,104,VALID,0,VALID,23.5399,VALID,161,VALID,0.570313,
2013-01-24, 01:56:05,VALID,1011.09,VALID,0,VALID,104,VALID,0,VALID,23.5381,VALID,161,VALID,0.649219,
2013-01-24, 01:57:05,VALID,1011.07,VALID,0,VALID,104,VALID,0,VALID,23.5399,VALID,161,VALID,0.442969,
2013-01-24, 01:58:05,VALID,1011.09,VALID,0,VALID,104,VALID,0,VALID,23.4992,VALID,161,VALID,0.537109,
2013-01-24, 01:59:05,VALID,1011.03,VALID,0,VALID,104,VALID,0,VALID,23.5186,VALID,160,VALID,0.6875,
2013-01-24, 02:00:05,VALID,1011.06,VALID,0,VALID,104,VALID,0,VALID,23.5186,VALID,160,VALID,0.313281,
2013-01-24, 02:01:05,VALID,1011.06,VALID,0,VALID,104,VALID,0,VALID,23.4992,VALID,164,VALID,0.873047,
2013-01-24, 02:02:05,VALID,1011.06,VALID,0,VALID,104,VALID,0,VALID,23.5186,VALID,164,VALID,0.471484,
2013-01-24, 02:03:05,VALID,1011.06,VALID,0,VALID,104,VALID,0,VALID,23.4797,VALID,164,VALID,0.270312,
2013-01-24, 02:04:05,VALID,1011.07,VALID,0,VALID,104,VALID,0,VALID,23.4797,VALID,164,VALID,0.236719,
2013-01-24, 02:05:05,VALID,1011.07,VALID,0,VALID,104,VALID,0,VALID,23.4992,VALID,164,VALID,0.140625,
2013-01-24, 02:06:05,VALID,1011.07,VALID,0,VALID,104,VALID,0,VALID,23.4992,VALID,164,VALID,0.315234,
2013-01-24, 02:07:05,VALID,1011.05,VALID,0,VALID,104,VALID,0,VALID,23.4797,VALID,164,VALID,0.290625,
2013-01-24, 02:08:05,VALID,1011.04,VALID,0,VALID,104,VALID,0,VALID,23.4797,VALID,164,VALID,0.410156,
2013-01-24, 02:09:05,VALID,1011.01,VALID,0,VALID,104,VALID,0,VALID,23.5009,VALID,164,VALID,0.326172,
2013-01-24, 02:10:05,VALID,1011.02,VALID,0,VALID,104,VALID,0,VALID,23.4602,VALID,164,VALID,0.448438,
2013-01-24, 02:11:05,VALID,1011.01,VALID,0,VALID,104,VALID,0,VALID,23.4602,VALID,164,VALID,0.455859,
2013-01-24, 02:12:05,VALID,1011,VALID,0,VALID,104,VALID,0,VALID,23.4602,VALID,164,VALID,0.459766,
2013-01-24, 02:13:05,VALID,1010.99,VALID,0,VALID,104,VALID,0,VALID,23.462,VALID,164,VALID,0.392578,
2013-01-24, 02:14:05,VALID,1010.93,VALID,0,VALID,104,VALID,0,VALID,23.4602,VALID,164,VALID,0.35625,
2013-01-24, 02:15:05,VALID,1010.97,VALID,0,VALID,104,VALID,0,VALID,23.4602,VALID,164,VALID,0.189453,
2013-01-24, 02:16:05,VALID,1010.96,VALID,0,VALID,104,VALID,0,VALID,23.4407,VALID,164,VALID,0,
2013-01-24, 02:17:05,VALID,1010.95,VALID,0,VALID,104,VALID,0,VALID,23.4797,VALID,164,VALID,0.245703,
2013-01-24, 02:18:05,VALID,1010.95,VALID,0,VALID,104,VALID,0,VALID,23.4797,VALID,164,VALID,0.16875,
2013-01-24, 02:19:05,VALID,1010.93,VALID,0,VALID,104,VALID,0,VALID,23.5204,VALID,164,VALID,0,
2013-01-24, 02:20:05,VALID,1010.89,VALID,0,VALID,104,VALID,0,VALID,23.4797,VALID,164,VALID,0.0359375,
2013-01-24, 02:21:05,VALID,1010.89,VALID,0,VALID,104,VALID,0,VALID,23.4797,VALID,164,VALID,0,
2013-01-24, 02:22:05,VALID,1010.88,VALID,0,VALID,104,VALID,0,VALID,23.4815,VALID,164,VALID,0.141016,
2013-01-24, 02:23:05,VALID,1010.9,VALID,0,VALID,104,VALID,0,VALID,23.4797,VALID,164,VALID,0,
2013-01-24, 02:24:05,VALID,1010.83,VALID,0,VALID,104,VALID,0,VALID,23.4602,VALID,164,VALID,0,
2013-01-24, 02:25:05,VALID,1010.88,VALID,0,VALID,104,VALID,0,VALID,23.4797,VALID,164,VALID,0,
2013-01-24, 02:26:05,VALID,1010.87,VALID,0,VALID,104,VALID,0,VALID,23.4407,VALID,164,VALID,0,
2013-01-24, 02:27:05,VALID,1010.82,VALID,0,VALID,104,VALID,0,VALID,23.4602,VALID,164,VALID,0,
2013-01-24, 02:28:05,VALID,1010.82,VALID,0,VALID,104,VALID,0,VALID,23.4407,VALID,164,VALID,0.0859375,
2013-01-24, 02:29:05,VALID,1010.78,VALID,0,VALID,104,VALID,0,VALID,23.4602,VALID,164,VALID,0.380469,
2013-01-24, 02:30:05,VALID,1010.79,VALID,0,VALID,104,VALID,0,VALID,23.423,VALID,164,VALID,0.492578,
2013-01-24, 02:31:05,VALID,1010.78,VALID,0,VALID,104,VALID,0,VALID,23.3823,VALID,164,VALID,0.579687,
2013-01-24, 02:32:05,VALID,1010.76,VALID,0,VALID,104,VALID,0,VALID,23.3628,VALID,164,VALID,0.396484,
2013-01-24, 02:33:05,VALID,1010.73,VALID,0,VALID,104,VALID,0,VALID,23.3628,VALID,164,VALID,0.197266,
2013-01-24, 02:34:05,VALID,1010.73,VALID,0,VALID,104,VALID,0,VALID,23.3433,VALID,164,VALID,0,
2013-01-24, 02:35:05,VALID,1010.73,VALID,0,VALID,104,VALID,0,VALID,23.3238,VALID,164,VALID,0.164844,
2013-01-24, 02:36:05,VALID,1010.75,VALID,0,VALID,104,VALID,0,VALID,23.3043,VALID,164,VALID,0.196094,
2013-01-24, 02:37:05,VALID,1010.73,VALID,0,VALID,104,VALID,0,VALID,23.3043,VALID,164,VALID,0.164063,
2013-01-24, 02:38:05,VALID,1010.72,VALID,0,VALID,104,VALID,0,VALID,23.2848,VALID,164,VALID,0.149609,
2013-01-24, 02:39:05,VALID,1010.75,VALID,0,VALID,104,VALID,0,VALID,23.3061,VALID,164,VALID,0.00976563,
2013-01-24, 02:40:05,VALID,1010.7,VALID,0,VALID,104,VALID,0,VALID,23.2848,VALID,164,VALID,0,
2013-01-24, 02:41:05,VALID,1010.72,VALID,0,VALID,104,VALID,0,VALID,23.2848,VALID,164,VALID,0,
2013-01-24, 02:42:05,VALID,1010.68,VALID,0,VALID,104,VALID,0,VALID,23.2848,VALID,164,VALID,0,
2013-01-24, 02:43:05,VALID,1010.67,VALID,0,VALID,104,VALID,0,VALID,23.2866,VALID,164,VALID,0,
2013-01-24, 02:44:05,VALID,1010.67,VALID,0,VALID,104,VALID,0,VALID,23.2654,VALID,164,VALID,0,
2013-01-24, 02:45:05,VALID,1010.67,VALID,0,VALID,104,VALID,0,VALID,23.3061,VALID,164,VALID,0,
2013-01-24, 02:46:05,VALID,1010.63,VALID,0,VALID,104,VALID,0,VALID,23.2848,VALID,164,VALID,0,
2013-01-24, 02:47:05,VALID,1010.64,VALID,0,VALID,104,VALID,0,VALID,23.2848,VALID,164,VALID,0,
2013-01-24, 02:48:05,VALID,1010.64,VALID,0,VALID,104,VALID,0,VALID,23.2654,VALID,164,VALID,0.0625,
2013-01-24, 02:49:05,VALID,1010.62,VALID,0,VALID,104,VALID,0,VALID,23.2848,VALID,164,VALID,0.309766,
2013-01-24, 02:50:05,VALID,1010.62,VALID,0,VALID,104,VALID,0,VALID,23.2459,VALID,164,VALID,0.211719,
2013-01-24, 02:51:05,VALID,1010.61,VALID,0,VALID,104,VALID,0,VALID,23.2459,VALID,164,VALID,0.189453,
2013-01-24, 02:52:05,VALID,1010.59,VALID,0,VALID,104,VALID,0,VALID,23.2459,VALID,164,VALID,0.279297,
2013-01-24, 02:53:05,VALID,1010.56,VALID,0,VALID,104,VALID,0,VALID,23.2459,VALID,164,VALID,0.33125,
2013-01-24, 02:54:05,VALID,1010.57,VALID,0,VALID,104,VALID,0,VALID,23.2654,VALID,164,VALID,0.236719,
2013-01-24, 02:55:05,VALID,1010.56,VALID,0,VALID,104,VALID,0,VALID,23.2459,VALID,164,VALID,0,
2013-01-24, 02:56:05,VALID,1010.56,VALID,0,VALID,104,VALID,0,VALID,23.2246,VALID,164,VALID,0,
2013-01-24, 02:57:05,VALID,1010.54,VALID,0,VALID,104,VALID,0,VALID,23.2459,VALID,164,VALID,0.226953,
2013-01-24, 02:58:05,VALID,1010.53,VALID,0,VALID,104,VALID,0,VALID,23.2246,VALID,164,VALID,0.241016,
2013-01-24, 02:59:05,VALID,1010.52,VALID,0,VALID,104,VALID,0,VALID,23.2246,VALID,164,VALID,0.250391,
2013-01-24, 03:00:05,VALID,1010.53,VALID,0,VALID,104,VALID,0,VALID,23.2264,VALID,164,VALID,0.255078,
2013-01-24, 03:01:05,VALID,1010.54,VALID,0,VALID,104,VALID,0,VALID,23.2246,VALID,164,VALID,0.0839844,
2013-01-24, 03:02:05,VALID,1010.52,VALID,0,VALID,104,VALID,0,VALID,23.2459,VALID,164,VALID,0.280469,
2013-01-24, 03:03:05,VALID,1010.51,VALID,0,VALID,104,VALID,0,VALID,23.2441,VALID,164,VALID,0.109766,
2013-01-24, 03:04:05,VALID,1010.51,VALID,0,VALID,104,VALID,0.112112,VALID,23.2654,VALID,164,VALID,0.373828,
2013-01-24, 03:05:05,VALID,1010.53,VALID,0,VALID,104,VALID,0,VALID,23.2459,VALID,164,VALID,0.385156,
2013-01-24, 03:06:05,VALID,1010.54,VALID,0,VALID,104,VALID,0.112112,VALID,23.2459,VALID,164,VALID,0.298047,
2013-01-24, 03:07:05,VALID,1010.52,VALID,0,VALID,104,VALID,0,VALID,23.1857,VALID,164,VALID,0.323047,
2013-01-24, 03:08:05,VALID,1010.53,VALID,0,VALID,104,VALID,0,VALID,23.2051,VALID,164,VALID,0.448828,
2013-01-24, 03:09:05,VALID,1010.54,VALID,0,VALID,104,VALID,0,VALID,23.1874,VALID,164,VALID,0.282813,
2013-01-24, 03:10:05,VALID,1010.54,VALID,0,VALID,104,VALID,0,VALID,23.1874,VALID,164,VALID,0.294922,
2013-01-24, 03:11:05,VALID,1010.56,VALID,0,VALID,104,VALID,0,VALID,23.1874,VALID,163,VALID,0.126953,
2013-01-24, 03:12:04,VALID,1010.56,VALID,0,VALID,104,VALID,0,VALID,23.1679,VALID,164,VALID,0.00234375,
2013-01-24, 03:13:04,VALID,1010.6,VALID,0,VALID,104,VALID,0,VALID,23.1467,VALID,164,VALID,0.117188,
2013-01-24, 03:14:04,VALID,1010.55,VALID,0,VALID,104,VALID,0,VALID,23.1485,VALID,163,VALID,0.481641,
2013-01-24, 03:15:04,VALID,1010.57,VALID,0,VALID,104,VALID,0,VALID,23.1467,VALID,164,VALID,0.493359,
2013-01-24, 03:16:04,VALID,1010.59,VALID,0,VALID,104,VALID,0,VALID,23.1679,VALID,161,VALID,0.421875,
2013-01-24, 03:17:04,VALID,1010.59,VALID,0,VALID,104,VALID,0,VALID,23.1467,VALID,124,VALID,0.407031,
2013-01-24, 03:18:04,VALID,1010.6,VALID,0,VALID,104,VALID,0,VALID,23.1467,VALID,125,VALID,0.276172,
2013-01-24, 03:19:04,VALID,1010.59,VALID,0,VALID,104,VALID,0,VALID,23.1272,VALID,125,VALID,0,
2013-01-24, 03:20:04,VALID,1010.59,VALID,0,VALID,104,VALID,0,VALID,23.1467,VALID,125,VALID,0,
2013-01-24, 03:21:04,VALID,1010.56,VALID,0,VALID,104,VALID,0,VALID,23.1272,VALID,125,VALID,0.116016,
2013-01-24, 03:22:04,VALID,1010.57,VALID,0,VALID,104,VALID,0,VALID,23.1679,VALID,125,VALID,0.188281,
2013-01-24, 03:23:04,VALID,1010.58,VALID,0,VALID,104,VALID,0,VALID,23.1272,VALID,125,VALID,0.215625,
2013-01-24, 03:24:04,VALID,1010.58,VALID,0,VALID,104,VALID,0,VALID,23.1272,VALID,120,VALID,0.518359,
2013-01-24, 03:25:04,VALID,1010.55,VALID,0,VALID,104,VALID,0,VALID,23.129,VALID,118,VALID,0.414453,
2013-01-24, 03:26:04,VALID,1010.54,VALID,0,VALID,104,VALID,0,VALID,23.129,VALID,55,VALID,0.531641,
2013-01-24, 03:27:04,VALID,1010.55,VALID,0,VALID,104,VALID,0,VALID,23.0688,VALID,52,VALID,0.757031,
2013-01-24, 03:28:04,VALID,1010.55,VALID,0,VALID,104,VALID,0,VALID,23.0883,VALID,51,VALID,0.674219,
2013-01-24, 03:29:04,VALID,1010.53,VALID,0,VALID,104,VALID,0,VALID,23.1095,VALID,51,VALID,0.552344,
2013-01-24, 03:30:04,VALID,1010.53,VALID,0,VALID,104,VALID,0,VALID,23.09,VALID,52,VALID,0.537109,
2013-01-24, 03:31:04,VALID,1010.53,VALID,0,VALID,104,VALID,0,VALID,23.09,VALID,52,VALID,0.488672,
2013-01-24, 03:32:04,VALID,1010.52,VALID,0,VALID,104,VALID,0,VALID,23.0688,VALID,52,VALID,0.685547,
2013-01-24, 03:33:04,VALID,1010.53,VALID,0,VALID,104,VALID,0,VALID,23.09,VALID,51,VALID,0.364453,
2013-01-24, 03:34:04,VALID,1010.52,VALID,0,VALID,104,VALID,0,VALID,23.0688,VALID,51,VALID,0.327344,
2013-01-24, 03:35:04,VALID,1010.54,VALID,0,VALID,104,VALID,0,VALID,23.0705,VALID,52,VALID,0.128516,
2013-01-24, 03:36:04,VALID,1010.54,VALID,0,VALID,104,VALID,0,VALID,23.0705,VALID,52,VALID,0.146094,
2013-01-24, 03:37:04,VALID,1010.6,VALID,0,VALID,104,VALID,0,VALID,23.0688,VALID,52,VALID,0.389453,
2013-01-24, 03:38:04,VALID,1010.57,VALID,0,VALID,104,VALID,0,VALID,23.09,VALID,51,VALID,0.152344,
2013-01-24, 03:39:04,VALID,1010.58,VALID,0,VALID,104,VALID,0,VALID,23.0705,VALID,51,VALID,0.404687,
2013-01-24, 03:40:04,VALID,1010.58,VALID,0,VALID,104,VALID,0,VALID,23.0316,VALID,51,VALID,0.158984,
2013-01-24, 03:41:04,VALID,1010.59,VALID,0,VALID,104,VALID,0,VALID,23.0511,VALID,52,VALID,0.303125,
2013-01-24, 03:42:04,VALID,1010.6,VALID,0,VALID,104,VALID,0,VALID,23.0298,VALID,51,VALID,0.162109,
2013-01-24, 03:43:04,VALID,1010.59,VALID,0,VALID,104,VALID,0,VALID,23.0705,VALID,52,VALID,0.00195313,
2013-01-24, 03:44:04,VALID,1010.59,VALID,0,VALID,104,VALID,0,VALID,23.0511,VALID,52,VALID,0.275781,
2013-01-24, 03:45:04,VALID,1010.62,VALID,0,VALID,104,VALID,0,VALID,23.0511,VALID,51,VALID,0,
2013-01-24, 03:46:04,VALID,1010.6,VALID,0,VALID,104,VALID,0,VALID,23.0511,VALID,52,VALID,0.0359375,
2013-01-24, 03:47:04,VALID,1010.62,VALID,0,VALID,104,VALID,0,VALID,23.0511,VALID,53,VALID,0.219531,
2013-01-24, 03:48:04,VALID,1010.63,VALID,0,VALID,104,VALID,0,VALID,23.0511,VALID,51,VALID,0.028125,
2013-01-24, 03:49:04,VALID,1010.62,VALID,0,VALID,104,VALID,0,VALID,23.0316,VALID,51,VALID,0,
2013-01-24, 03:50:04,VALID,1010.64,VALID,0,VALID,104,VALID,0,VALID,23.0316,VALID,51,VALID,0,
2013-01-24, 03:51:04,VALID,1010.65,VALID,0,VALID,104,VALID,0,VALID,23.0316,VALID,52,VALID,0,
2013-01-24, 03:52:04,VALID,1010.65,VALID,0,VALID,104,VALID,0,VALID,23.0316,VALID,50,VALID,0,
2013-01-24, 03:53:04,VALID,1010.66,VALID,0,VALID,104,VALID,0,VALID,23.0121,VALID,52,VALID,0,
2013-01-24, 03:54:04,VALID,1010.68,VALID,0,VALID,104,VALID,0,VALID,23.0121,VALID,52,VALID,0,
2013-01-24, 03:55:04,VALID,1010.71,VALID,0,VALID,104,VALID,0,VALID,22.9926,VALID,51,VALID,0,
2013-01-24, 03:56:04,VALID,1010.73,VALID,0,VALID,104,VALID,0,VALID,22.9926,VALID,50,VALID,0,